Preview of NWS' New Version of Forecast
This preview is not operational and should not be used for support decisions.

Regional Weather Roundup (RWR)

Issued by National Weather Service (NWS)

                            
000
ASUS43 KDTX 180310
RWRMI 
MICHIGAN HOURLY REGIONAL WEATHER ROUNDUP
NATIONAL WEATHER SERVICE DETROIT/PONTIAC MI
1100 PM EDT WED APR 17 2019

NOTE: "FAIR" INDICATES FEW OR NO CLOUDS BELOW 12,000 FEET WITH NO
SIGNIFICANT WEATHER AND/OR OBSTRUCTION TO VISIBILITY.

MIZ047>049-052>055-059>063-066>070-074>076-081>083-180400-
SOUTHEAST LOWER MICHIGAN
  
CITY           SKY/WX    TMP DP  RH WIND       PRES   REMARKS
ADRIAN         CLOUDY    48  44  86 E6        29.79R                  
ALMA           FAIR      53  47  82 SE8       29.69F                  
ANN ARBOR      CLOUDY    52  48  86 E6        29.78S                  
BAD AXE        CLOUDY    47  42  82 SE8       29.74S                  
CARO           FAIR      53  46  76 SE13      29.72S                  
DETROIT CITY   CLOUDY    50  45  83 SE6       29.79F                  
DETROIT        CLOUDY    51  45  79 SE5       29.79F                  
FLINT          CLOUDY    53  47  79 SE13G22   29.73F                  
GROSSE ILE     CLOUDY    51  47  87 E6        29.78S                  
HILLSDALE      CLOUDY    50  45  82 SE9       29.75F                  
HOWELL         CLOUDY    52  47  82 SE10      29.74F                  

CITY           SKY/WX    TMP DP  RH WIND       PRES   REMARKS
JACKSON        CLOUDY    51  48  89 E8        29.75F                  
LAMBERTVILLE   CLOUDY    48  46  95 E5        29.78S                  
LANSING        MOCLDY    55  49  80 SE18G26   29.70F                  
LAPEER         LGT RAIN  51  46  80 S12G17    29.77R                  
MASON          CLOUDY    54  49  83 SE14G22   29.73F                  
MONROE         CLOUDY    48  47  97 E7        29.79R                  
MT. CLEMENS    MOCLDY    48  48 100 SE12      29.77F                  
PONTIAC        CLOUDY    49  46  90 SE7       29.77F                  
PORT HOPE        N/A     46  39  76 SE23G31   29.73F                  
PORT HURON     CLOUDY    54  46  76 SE13      29.78F                  
TRI CITIES     FAIR      51  47  86 SE10      29.70F                  
MIDLAND        MOCLDY    44  41  90 E3        29.69F                  
TROY           CLOUDY    51  45  80 CALM      29.81S                  
SAGINAW HB     FAIR      54  46  76 SE7       29.71F                  
$$
MIZ043>046-050>051-056>058-064>065-071>073-077>080-180400-
SOUTHWEST LOWER MICHIGAN
  
CITY           SKY/WX    TMP DP  RH WIND       PRES   REMARKS
BATTLE CREEK   CLOUDY    54  48  80 SE10      29.71F                  
BENTON HARBOR  MOCLDY    69  51  52 S12G18    29.63F                  
BIG RAPIDS     CLOUDY    49  47  91 SE10      29.63F                  
COLDWATER      CLOUDY    55  49  81 SE10      29.73S                  
FREMONT        CLOUDY    58  49  72 SE9G16    29.60F                  
HOLLAND        FAIR      59  51  75 S14       29.62F                  
GRAND RAPIDS   MOCLDY    57  48  72 SE18      29.64F                  
IONIA          MOCLDY    54  47  77 SE13      29.66F                  
KALAMAZOO      CLOUDY    57  49  74 SE10G18   29.69F                  
LUDINGTON      CLOUDY    55  49  80 SE13G21   29.53F                  
MARSHALL       CLOUDY    53  52  97 E8        29.73F                  
MOUNT PLEASANT MOCLDY    45  44  98 E6        29.68F                  
MUSKEGON       CLOUDY    61  50  67 SE16G24   29.59F                  
SOUTH HAVEN    CLOUDY    65  53  64 SE7       29.63F                  
$$
MIZ016>042-180400-
NORTHERN LOWER MICHIGAN
  
CITY           SKY/WX    TMP DP  RH WIND       PRES   REMARKS
ALPENA         CLOUDY    42  39  89 SE17G28   29.75F                  
BEAVER ISLAND  LGT RAIN  38  37  96 E15G24    29.61F WCI  30          
BELLAIRE       CLOUDY    47  43  85 SE6       29.61F                  
CADILLAC       CLOUDY    47  46  95 SE12      29.62F                  
CHARLEVOIX     CLOUDY    44  41  91 E18G26    29.60F                  
FRANKFORT      CLOUDY    55  47  73 SE14G23   29.50F                  
GAYLORD        CLOUDY    41  40  96 SE13G21   29.66F                  
GRAYLING       CLOUDY    43  43  97 SE10      29.65F                  
HARBOR SPRINGS LGT RAIN  41  40  97 E17G23    29.63F                  
HOUGHTON LAKE  CLOUDY    44  41  89 SE13G25   29.66F                  
MANISTEE       CLOUDY    52  48  86 SE13G22   29.52F                  
OSCODA         CLOUDY    41  39  92 SE8       29.75S                  
PELLSTON       LGT RAIN  41  39  93 SE12      29.66F                  
ROGERS CITY    HVY RAIN  41  39  93 SE8       29.78R                  
TRAVERSE CITY  MOCLDY    49  44  83 S10G21    29.57F                  
$$
MIZ007>008-015-180400-
EASTERN UPPER MICHIGAN
  
CITY           SKY/WX    TMP DP  RH WIND       PRES   REMARKS
KINROSS        RAIN      38  33  82 SE17      29.72F WCI  28          
MACKINAC ISLAN LGT SNOW  37  37 100 E20G32    29.69F WCI  26          
NEWBERRY       LGT RAIN  37  35  92 E9G16     29.69F WCI  30          
S. S. MARIE    LGT RAIN  43  31  62 E10G26    29.73F                  
MUNISING         N/A     37  34  89 E9        29.64F WCI  30          
$$
MIZ004>006-011>014-085-180400-
CENTRAL UPPER MICHIGAN
  
CITY           SKY/WX    TMP DP  RH WIND       PRES   REMARKS
MANISTIQUE     LGT SNOW  38  32  79 E10G21    29.63F WCI  31          
ESCANABA       LGT RAIN  38  37  97 E14       29.58F FOG     WCI  30  
MENOMINEE      TSTM      43  41  93 E20G26    29.53F                  
SAWYER-GWINN   CLOUDY    37  36  93 E10       29.62F WCI  30          
$$
MIZ001>003-009>011-084-180400-
WESTERN UPPER MICHIGAN
  
CITY           SKY/WX    TMP DP  RH WIND       PRES   REMARKS
IRON MOUNTAIN  LGT RAIN  40  38  93 NE7       29.55F                  
HOUGHTON       LGT RAIN  37  33  85 E13       29.69F WCI  29          
COPPER HARBOR    N/A     37  34  89 SE7       29.75F WCI  32          
IRONWOOD       LGT RAIN  37  36  96 NE6       29.64S FOG     WCI  32  
$$

ABBREVIATIONS USED IN REMARKS
   TC - TEMPERATURE IN CELSIUS
  WCI - WIND CHILL INDEX
   HX - HEAT INDEX
  VSB - VISIBILITY